FW3102 Weather Reports


Display with metric or nautical units.
time (UTC)temp
F
wind
direction
speed
MPH
gust
MPH
rain 1hr
in
rain 24hr
in
rain mn
in
humidity
%
barometer
mb
20260510023014 65 306 0.0 4.0 0.00 0.00 0.00 39 1010.6
20260510021527 66 133 0.0 2.0 0.00 0.00 0.00 36 1010.6
20260510020013 67 56 0.0 1.0 0.00 0.00 0.00 36 1010.6
20260510014512 68 143 0.0 2.0 0.00 0.00 0.00 35 1010.6
20260510013021 68 133 0.0 1.0 0.00 0.00 0.00 35 1010.5
20260510011512 68 133 0.0 1.0 0.00 0.00 0.00 35 1010.6
20260510010011 69 150 0.0 1.0 0.00 0.00 0.00 34 1010.8
20260510004512 70 95 0.0 2.0 0.00 0.00 0.00 34 1010.8
20260510003010 70 109 0.0 4.0 0.00 0.00 0.00 34 1010.9
20260510001511 71 196 0.0 2.0 0.00 0.00 0.00 34 1011.1
20260510000009 71 105 0.0 2.0 0.00 0.00 0.00 32 1011.0
20260509234508 72 139 0.0 1.0 0.00 0.00 0.00 34 1011.1
20260509233004 70 145 0.0 3.0 0.00 0.00 0.00 34 1011.2
20260509231503 70 59 1.0 4.0 0.00 0.00 0.00 33 1011.3
20260509230004 70 102 0.0 2.0 0.00 0.00 0.00 34 1011.5
20260509224600 70 143 0.0 3.0 0.00 0.00 0.00 35 1011.6
20260509223103 70 98 0.0 3.0 0.00 0.00 0.00 35 1011.6
20260509221558 70 135 1.0 3.0 0.00 0.00 0.00 35 1011.9
20260509220101 70 273 0.0 2.0 0.00 0.00 0.00 35 1011.9
20260509214615 70 145 0.0 1.0 0.00 0.00 0.00 37 1012.2
20260509213050 68 49 0.0 2.0 0.00 0.00 0.00 37 1012.2
20260509211547 67 325 0.0 2.0 0.00 0.00 0.00 39 1012.2
20260509210046 66 48 1.0 4.0 0.00 0.00 0.00 38 1012.3
20260509204546 65 39 0.0 3.0 0.00 0.00 0.00 41 1012.3
20260509203056 66 191 0.0 2.0 0.00 0.00 0.00 41 1012.5
20260509201542 66 32 0.0 4.0 0.00 0.00 0.00 42 1012.7
20260509200041 67 51 0.0 2.0 0.00 0.00 0.00 38 1012.8
20260509194536 65 126 1.0 4.0 0.00 0.00 0.00 41 1012.9
20260509193035 65 77 0.0 2.0 0.00 0.00 0.00 39 1012.9
20260509191547 65 49 0.0 2.0 0.00 0.00 0.00 42 1013.0
20260509190032 63 23 0.0 3.0 0.00 0.00 0.00 43 1013.0
20260509184542 62 79 0.0 4.0 0.00 0.00 0.00 43 1013.1
20260509183033 62 31 1.0 4.0 0.00 0.00 0.00 43 1013.4
20260509181524 63 2 0.0 4.0 0.00 0.00 0.00 43 1013.4
20260509180020 60 49 0.0 1.0 0.00 0.00 0.00 48 1013.5
20260509174521 58 65 0.0 2.0 0.00 0.00 0.00 48 1013.7
20260509173015 58 49 0.0 1.0 0.00 0.00 0.00 48 1013.7
20260509171513 58 200 0.0 1.0 0.00 0.00 0.00 48 1013.5
20260509170011 57 128 0.0 1.0 0.00 0.00 0.00 48 1013.7
20260509164509 57 88 0.0 1.0 0.00 0.00 0.00 50 1013.6
20260509163011 56 51 0.0 1.0 0.00 0.00 0.00 50 1013.5
20260509161502 56 133 0.0 1.0 0.00 0.00 0.00 54 1013.5
20260509160059 53 129 0.0 1.0 0.00 0.00 0.00 56 1013.5
20260509154558 51 67 0.0 1.0 0.00 0.00 0.00 57 1013.7
20260509153115 50 108 0.0 1.0 0.00 0.00 0.00 59 1013.7
20260509151556 49 128 0.0 1.0 0.00 0.00 0.00 60 1013.5
20260509150055 48 128 0.0 1.0 0.00 0.00 0.00 61 1013.5
20260509144553 47 128 0.0 1.0 0.00 0.00 0.00 62 1013.3
20260509143052 47 128 0.0 1.0 0.00 0.00 0.00 63 1013.3
20260509141551 46 113 0.0 1.0 0.00 0.00 0.00 64 1013.2
20260509140050 46 134 0.0 1.0 0.00 0.00 0.00 64 1013.1
20260509134548 46 122 0.0 1.0 0.00 0.00 0.00 65 1013.0
20260509133047 45 191 0.0 1.0 0.00 0.00 0.00 64 1012.8
20260509131546 45 127 0.0 1.0 0.00 0.00 0.00 64 1012.6
20260509130051 45 138 0.0 1.0 0.00 0.00 0.00 63 1012.5
20260509124551 46 136 0.0 3.0 0.00 0.00 0.00 62 1012.4
20260509123044 46 142 0.0 1.0 0.00 0.00 0.00 62 1012.4
20260509121546 45 132 0.0 3.0 0.00 0.00 0.00 62 1012.3
20260509120042 45 38 0.0 1.0 0.00 0.00 0.00 62 1012.2
20260509114549 46 136 0.0 1.0 0.00 0.00 0.00 61 1012.4
20260509113043 46 53 0.0 1.0 0.00 0.00 0.00 61 1012.4
20260509111539 46 51 0.0 0.0 0.00 0.00 0.00 60 1012.5
20260509110035 47 51 0.0 1.0 0.00 0.00 0.00 59 1012.4
20260509104533 47 38 0.0 1.0 0.00 0.00 0.00 58 1012.3
20260509103031 47 58 0.0 2.0 0.00 0.00 0.00 58 1012.2
20260509101545 48 107 0.0 2.0 0.00 0.00 0.00 57 1012.2
20260509100031 48 44 0.0 2.0 0.00 0.00 0.00 57 1012.0
20260509094525 48 40 0.0 4.0 0.00 0.00 0.00 57 1012.0
20260509093024 49 103 0.0 5.0 0.00 0.00 0.00 55 1012.0
20260509091521 49 93 1.0 6.0 0.00 0.00 0.00 53 1012.0
20260509090029 50 66 0.0 4.0 0.00 0.00 0.00 52 1011.9
20260509084515 50 110 0.0 2.0 0.00 0.00 0.00 51 1011.7
20260509083028 50 112 1.0 4.0 0.00 0.00 0.00 50 1011.6
20260509081511 51 38 0.0 3.0 0.00 0.00 0.00 49 1011.5
20260509080009 51 44 0.0 1.0 0.00 0.00 0.00 49 1011.4
20260509074506 51 37 0.0 2.0 0.00 0.00 0.00 48 1011.4
20260509073003 52 39 0.0 2.0 0.00 0.00 0.00 48 1011.2
20260509071502 52 35 0.0 1.0 0.00 0.00 0.00 47 1010.9
20260509070100 52 40 0.0 2.0 0.00 0.00 0.00 47 1010.9
20260509064602 52 37 0.0 5.0 0.00 0.00 0.00 47 1010.8
20260509063059 53 123 0.0 2.0 0.00 0.00 0.00 47 1010.7
20260509061554 53 46 0.0 3.0 0.00 0.00 0.00 47 1010.5
20260509060106 53 53 1.0 3.0 0.00 0.00 0.00 47 1010.2
20260509054550 53 80 1.0 4.0 0.00 0.00 0.00 47 1010.1
20260509053110 54 68 0.0 2.0 0.00 0.00 0.00 47 1010.0
20260509051552 54 34 1.0 3.0 0.00 0.00 0.00 46 1009.8
20260509050046 54 35 1.0 4.0 0.00 0.00 0.00 46 1009.7
20260509044611 55 41 0.0 2.0 0.00 0.00 0.00 45 1009.6
20260509043103 55 42 0.0 4.0 0.00 0.00 0.00 44 1009.1
20260509041541 56 38 1.0 5.0 0.00 0.00 0.00 44 1008.9
20260509040043 56 30 2.0 5.0 0.00 0.00 0.00 43 1008.7
20260509034541 57 49 2.0 5.0 0.00 0.00 0.00 42 1008.6
20260509033036 57 61 2.0 6.0 0.00 0.00 0.00 41 1008.3
20260509031550 58 338 1.0 9.0 0.00 0.00 0.00 40 1008.0
20260509030055 59 8 1.0 6.0 0.00 0.00 0.00 36 1007.7
20260509024538 60 325 2.0 7.0 0.00 0.00 0.00 37 1007.5